Time,TemperatureF,DewpointF,PressureIn,WindDirection,WindDirectionDegrees,WindSpeedMPH,WindSpeedGustMPH,Humidity,HourlyPrecipIn,Conditions,Clouds,dailyrainin,SoftwareType,DateUTC
2013-07-07 00:02:00,62.4,36.5,30.47,NW,315,3.6,3.6,38,0.00,,---,0.00,VWS V13.01,2013-07-07 07:02:00,
2013-07-07 00:07:00,62.2,37.0,30.47,NW,315,2.2,3.1,39,0.00,,---,0.00,VWS V13.01,2013-07-07 07:07:00,
2013-07-07 00:12:00,61.9,37.3,30.47,NW,315,3.1,3.1,40,0.00,,---,0.00,VWS V13.01,2013-07-07 07:12:00,
2013-07-07 00:17:00,61.7,38.4,30.47,NW,315,0.0,0.0,42,0.00,,---,0.00,VWS V13.01,2013-07-07 07:17:00,
2013-07-07 00:22:00,61.3,39.3,30.47,NW,315,3.1,3.1,44,0.00,,---,0.00,VWS V13.01,2013-07-07 07:22:00,
2013-07-07 00:27:00,61.2,40.2,30.47,NW,315,0.0,0.0,46,0.00,,---,0.00,VWS V13.01,2013-07-07 07:27:00,
2013-07-07 00:32:00,61.3,41.5,30.47,NW,315,0.0,0.0,48,0.00,,---,0.00,VWS V13.01,2013-07-07 07:32:00,
2013-07-07 00:37:00,61.0,41.7,30.47,NW,315,0.0,0.0,49,0.00,,---,0.00,VWS V13.01,2013-07-07 07:37:00,
2013-07-07 00:42:00,60.6,41.9,30.47,NW,315,0.0,0.0,50,0.00,,---,0.00,VWS V13.01,2013-07-07 07:42:00,
2013-07-07 00:47:00,60.4,42.8,30.50,NW,315,0.0,0.0,52,0.00,,---,0.00,VWS V13.01,2013-07-07 07:47:00,
2013-07-07 00:52:00,59.9,42.7,30.50,NW,315,0.0,0.0,53,0.00,,---,0.00,VWS V13.01,2013-07-07 07:52:00,
2013-07-07 00:57:00,59.4,42.7,30.50,NW,315,0.0,0.0,54,0.00,,---,0.00,VWS V13.01,2013-07-07 07:57:00,
2013-07-07 01:02:00,59.0,43.3,30.50,NW,315,2.7,3.6,56,0.00,,---,0.00,VWS V13.01,2013-07-07 08:02:00,
2013-07-07 01:07:00,59.4,44.1,30.50,NW,315,2.7,4.0,57,0.00,,---,0.00,VWS V13.01,2013-07-07 08:07:00,
2013-07-07 01:12:00,59.2,43.0,30.50,NW,315,2.7,2.7,55,0.00,,---,0.00,VWS V13.01,2013-07-07 08:12:00,
2013-07-07 01:17:00,59.0,43.3,30.50,NW,315,0.0,0.0,56,0.00,,---,0.00,VWS V13.01,2013-07-07 08:17:00,
2013-07-07 01:22:00,58.8,44.5,30.50,NW,315,0.0,2.2,59,0.00,,---,0.00,VWS V13.01,2013-07-07 08:22:00,
2013-07-07 01:27:00,58.6,44.8,30.50,NW,315,0.0,0.0,60,0.00,,---,0.00,VWS V13.01,2013-07-07 08:27:00,
2013-07-07 01:32:00,58.5,45.1,30.50,NW,315,0.0,0.0,61,0.00,,---,0.00,VWS V13.01,2013-07-07 08:32:00,
2013-07-07 01:37:00,58.3,44.5,30.50,NW,315,0.0,0.0,60,0.00,,---,0.00,VWS V13.01,2013-07-07 08:37:00,
2013-07-07 01:42:00,57.7,44.4,30.50,NW,315,0.0,0.0,61,0.00,,---,0.00,VWS V13.01,2013-07-07 08:42:00,
2013-07-07 01:47:00,57.4,44.9,30.50,NW,315,0.0,0.0,63,0.00,,---,0.00,VWS V13.01,2013-07-07 08:47:00,
2013-07-07 01:52:00,57.6,45.5,30.50,NW,315,0.0,0.0,64,0.00,,---,0.00,VWS V13.01,2013-07-07 08:52:00,
2013-07-07 01:57:00,57.6,45.5,30.50,NW,315,0.0,0.0,64,0.00,,---,0.00,VWS V13.01,2013-07-07 08:57:00,
2013-07-07 02:02:00,57.4,45.3,30.50,NW,315,0.0,0.0,64,0.00,,---,0.00,VWS V13.01,2013-07-07 09:02:00,
2013-07-07 02:07:00,57.4,45.3,30.50,NW,315,0.0,0.0,64,0.00,,---,0.00,VWS V13.01,2013-07-07 09:07:00,
2013-07-07 02:12:00,57.2,45.2,30.50,NW,315,0.0,0.0,64,0.00,,---,0.00,VWS V13.01,2013-07-07 09:12:00,
2013-07-07 02:17:00,56.7,45.0,30.50,NW,315,0.0,0.0,65,0.00,,---,0.00,VWS V13.01,2013-07-07 09:17:00,
2013-07-07 02:22:00,56.5,44.9,30.50,NW,315,0.0,0.0,65,0.00,,---,0.00,VWS V13.01,2013-07-07 09:22:00,
2013-07-07 02:27:00,56.1,44.5,30.50,NW,315,0.0,0.0,65,0.00,,---,0.00,VWS V13.01,2013-07-07 09:27:00,
2013-07-07 02:32:00,55.4,43.8,30.50,NW,315,0.0,0.0,65,0.00,,---,0.00,VWS V13.01,2013-07-07 09:32:00,
2013-07-07 02:37:00,54.7,44.0,30.50,NW,315,0.0,0.0,67,0.00,,---,0.00,VWS V13.01,2013-07-07 09:37:00,
2013-07-07 02:42:00,54.1,43.4,30.50,NW,315,0.0,0.0,67,0.00,,---,0.00,VWS V13.01,2013-07-07 09:42:00,
2013-07-07 02:47:00,53.4,43.1,30.50,NW,315,0.0,0.0,68,0.00,,---,0.00,VWS V13.01,2013-07-07 09:47:00,
2013-07-07 02:52:00,52.9,42.6,30.50,NW,315,0.0,0.0,68,0.00,,---,0.00,VWS V13.01,2013-07-07 09:52:00,
2013-07-07 02:57:00,52.7,42.5,30.50,NW,315,0.0,0.0,68,0.00,,---,0.00,VWS V13.01,2013-07-07 09:57:00,
2013-07-07 03:02:00,52.7,43.6,30.50,NW,315,0.0,0.0,71,0.00,,---,0.00,VWS V13.01,2013-07-07 10:02:00,
2013-07-07 03:07:00,52.0,42.5,30.50,NW,315,0.0,0.0,70,0.00,,---,0.00,VWS V13.01,2013-07-07 10:07:00,
2013-07-07 03:12:00,51.3,41.5,30.50,NW,315,0.0,0.0,69,0.00,,---,0.00,VWS V13.01,2013-07-07 10:12:00,
2013-07-07 03:17:00,50.5,40.8,30.50,NW,315,0.0,0.0,69,0.00,,---,0.00,VWS V13.01,2013-07-07 10:17:00,
2013-07-07 03:22:00,50.5,42.2,30.50,NW,315,0.0,0.0,73,0.00,,---,0.00,VWS V13.01,2013-07-07 10:22:00,
2013-07-07 03:27:00,50.9,43.3,30.50,NW,315,0.0,0.0,75,0.00,,---,0.00,VWS V13.01,2013-07-07 10:27:00,
2013-07-07 03:32:00,51.3,43.6,30.50,NW,315,0.0,0.0,75,0.00,,---,0.00,VWS V13.01,2013-07-07 10:32:00,
2013-07-07 03:37:00,51.3,43.3,30.50,NW,315,0.0,0.0,74,0.00,,---,0.00,VWS V13.01,2013-07-07 10:37:00,
2013-07-07 03:42:00,51.1,42.7,30.50,NW,315,0.0,0.0,73,0.00,,---,0.00,VWS V13.01,2013-07-07 10:42:00,
2013-07-07 03:47:00,50.9,42.6,30.50,NW,315,0.0,0.0,73,0.00,,---,0.00,VWS V13.01,2013-07-07 10:47:00,
2013-07-07 03:52:00,50.4,41.7,30.50,NW,315,0.0,0.0,72,0.00,,---,0.00,VWS V13.01,2013-07-07 10:52:00,
2013-07-07 03:57:00,49.6,41.0,30.50,NW,315,0.0,0.0,72,0.00,,---,0.00,VWS V13.01,2013-07-07 10:57:00,
2013-07-07 04:02:00,49.8,41.9,30.50,NW,315,0.0,0.0,74,0.00,,---,0.00,VWS V13.01,2013-07-07 11:02:00,
2013-07-07 04:07:00,50.2,42.6,30.50,NW,315,0.0,0.0,75,0.00,,---,0.00,VWS V13.01,2013-07-07 11:07:00,
2013-07-07 04:12:00,49.8,42.2,30.50,NW,315,0.0,0.0,75,0.00,,---,0.00,VWS V13.01,2013-07-07 11:12:00,
2013-07-07 04:17:00,50.0,42.0,30.50,NW,315,0.0,0.0,74,0.00,,---,0.00,VWS V13.01,2013-07-07 11:17:00,
2013-07-07 04:22:00,50.2,42.2,30.50,NW,315,0.0,0.0,74,0.00,,---,0.00,VWS V13.01,2013-07-07 11:22:00,
2013-07-07 04:27:00,50.0,42.0,30.50,NW,315,0.0,0.0,74,0.00,,---,0.00,VWS V13.01,2013-07-07 11:27:00,
2013-07-07 04:32:00,49.6,41.7,30.50,NW,315,0.0,0.0,74,0.00,,---,0.00,VWS V13.01,2013-07-07 11:32:00,
2013-07-07 04:37:00,49.3,41.4,30.50,NW,315,0.0,0.0,74,0.00,,---,0.00,VWS V13.01,2013-07-07 11:37:00,
2013-07-07 04:42:00,48.9,41.0,30.50,NW,315,0.0,0.0,74,0.00,,---,0.00,VWS V13.01,2013-07-07 11:42:00,
2013-07-07 04:47:00,48.6,41.0,30.50,NW,315,0.0,0.0,75,0.00,,---,0.00,VWS V13.01,2013-07-07 11:47:00,
2013-07-07 04:52:00,48.4,40.8,30.50,NW,315,0.0,0.0,75,0.00,,---,0.00,VWS V13.01,2013-07-07 11:52:00,
2013-07-07 04:57:00,48.2,41.0,30.50,NW,315,0.0,0.0,76,0.00,,---,0.00,VWS V13.01,2013-07-07 11:57:00,
2013-07-07 05:02:00,49.3,42.0,30.50,NW,315,2.2,3.1,76,0.00,,---,0.00,VWS V13.01,2013-07-07 12:02:00,
2013-07-07 05:07:00,49.1,41.5,30.50,NW,315,0.0,0.0,75,0.00,,---,0.00,VWS V13.01,2013-07-07 12:07:00,
2013-07-07 05:12:00,49.5,41.5,30.50,NW,315,2.2,2.2,74,0.00,,---,0.00,VWS V13.01,2013-07-07 12:12:00,
2013-07-07 05:17:00,49.3,41.0,30.50,NW,315,0.0,0.0,73,0.00,,---,0.00,VWS V13.01,2013-07-07 12:17:00,
2013-07-07 05:22:00,49.5,41.2,30.50,NW,315,0.0,2.7,73,0.00,,---,0.00,VWS V13.01,2013-07-07 12:22:00,
2013-07-07 05:27:00,49.5,41.2,30.50,NW,315,2.7,2.7,73,0.00,,---,0.00,VWS V13.01,2013-07-07 12:27:00,
2013-07-07 05:32:00,49.6,41.0,30.50,NW,315,0.0,2.7,72,0.00,,---,0.00,VWS V13.01,2013-07-07 12:32:00,
2013-07-07 05:37:00,49.8,41.2,30.50,NW,315,2.2,2.2,72,0.00,,---,0.00,VWS V13.01,2013-07-07 12:37:00,
2013-07-07 05:42:00,50.0,41.0,30.50,NW,315,0.0,0.0,71,0.00,,---,0.00,VWS V13.01,2013-07-07 12:42:00,
2013-07-07 05:47:00,49.5,40.5,30.50,NW,315,0.0,0.0,71,0.00,,---,0.00,VWS V13.01,2013-07-07 12:47:00,
2013-07-07 05:52:00,48.7,39.8,30.50,NW,315,0.0,0.0,71,0.00,,---,0.00,VWS V13.01,2013-07-07 12:52:00,
2013-07-07 05:57:00,48.9,40.7,30.50,NW,315,0.0,0.0,73,0.00,,---,0.00,VWS V13.01,2013-07-07 12:57:00,
2013-07-07 06:02:00,49.5,41.5,30.50,NW,315,0.0,0.0,74,0.00,,---,0.00,VWS V13.01,2013-07-07 13:02:00,
2013-07-07 06:07:00,50.0,41.7,30.50,NW,315,2.2,3.1,73,0.00,,---,0.00,VWS V13.01,2013-07-07 13:07:00,
2013-07-07 06:12:00,50.4,41.7,30.50,NW,315,3.1,3.1,72,0.00,,---,0.00,VWS V13.01,2013-07-07 13:12:00,
2013-07-07 06:17:00,51.1,41.7,30.50,NW,315,0.0,2.2,70,0.00,,---,0.00,VWS V13.01,2013-07-07 13:17:00,
2013-07-07 06:22:00,51.1,41.7,30.53,NW,315,0.0,0.0,70,0.00,,---,0.00,VWS V13.01,2013-07-07 13:22:00,
2013-07-07 06:27:00,51.4,41.6,30.53,NW,315,0.0,0.0,69,0.00,,---,0.00,VWS V13.01,2013-07-07 13:27:00,
2013-07-07 06:32:00,51.6,41.8,30.53,NW,315,0.0,0.0,69,0.00,,---,0.00,VWS V13.01,2013-07-07 13:32:00,
2013-07-07 06:37:00,52.3,42.1,30.53,NW,315,0.0,0.0,68,0.00,,---,0.00,VWS V13.01,2013-07-07 13:37:00,
2013-07-07 06:42:00,53.8,42.7,30.53,NW,315,0.0,0.0,66,0.00,,---,0.00,VWS V13.01,2013-07-07 13:42:00,
2013-07-07 06:47:00,54.7,43.2,30.53,NW,315,3.1,3.1,65,0.00,,---,0.00,VWS V13.01,2013-07-07 13:47:00,
2013-07-07 06:52:00,55.4,42.2,30.53,NW,315,2.2,2.7,61,0.00,,---,0.00,VWS V13.01,2013-07-07 13:52:00,
2013-07-07 06:57:00,56.5,42.3,30.53,NW,315,2.7,2.7,59,0.00,,---,0.00,VWS V13.01,2013-07-07 13:57:00,
2013-07-07 07:02:00,57.4,41.8,30.53,NW,315,3.1,3.6,56,0.00,,---,0.00,VWS V13.01,2013-07-07 14:02:00,
2013-07-07 07:07:00,58.1,41.6,30.53,WNW,292,3.1,3.1,54,0.00,,---,0.00,VWS V13.01,2013-07-07 14:07:00,
2013-07-07 07:12:00,58.3,41.2,30.53,WNW,292,3.1,3.1,53,0.00,,---,0.00,VWS V13.01,2013-07-07 14:12:00,
2013-07-07 07:17:00,58.6,41.1,30.53,WNW,292,2.7,2.7,52,0.00,,---,0.00,VWS V13.01,2013-07-07 14:17:00,
2013-07-07 07:22:00,59.4,41.2,30.53,WNW,292,0.0,0.0,51,0.00,,---,0.00,VWS V13.01,2013-07-07 14:22:00,
2013-07-07 07:27:00,59.9,41.8,30.53,WNW,292,3.6,3.6,51,0.00,,---,0.00,VWS V13.01,2013-07-07 14:27:00,
2013-07-07 07:32:00,60.4,41.7,30.53,WNW,292,2.2,3.6,50,0.00,,---,0.00,VWS V13.01,2013-07-07 14:32:00,
2013-07-07 07:37:00,61.0,41.7,30.53,WNW,292,3.1,4.0,49,0.00,,---,0.00,VWS V13.01,2013-07-07 14:37:00,
2013-07-07 07:42:00,61.7,42.4,30.53,West,270,2.7,3.1,49,0.00,,---,0.00,VWS V13.01,2013-07-07 14:42:00,
2013-07-07 07:47:00,62.4,42.5,30.53,West,270,2.7,2.7,48,0.00,,---,0.00,VWS V13.01,2013-07-07 14:47:00,
2013-07-07 07:52:00,62.8,42.8,30.53,West,270,3.1,3.6,48,0.00,,---,0.00,VWS V13.01,2013-07-07 14:52:00,
2013-07-07 07:57:00,63.1,42.6,30.53,WNW,292,0.0,0.0,47,0.00,,---,0.00,VWS V13.01,2013-07-07 14:57:00,
2013-07-07 08:02:00,64.2,43.6,30.53,NW,315,2.2,4.0,47,0.00,,---,0.00,VWS V13.01,2013-07-07 15:02:00,
2013-07-07 08:07:00,65.3,43.4,30.53,NW,315,4.0,4.0,45,0.00,,---,0.00,VWS V13.01,2013-07-07 15:07:00,
2013-07-07 08:12:00,66.0,43.5,30.53,NW,315,4.9,4.9,44,0.00,,---,0.00,VWS V13.01,2013-07-07 15:12:00,
2013-07-07 08:17:00,66.4,43.2,30.53,SW,225,3.1,3.1,43,0.00,,---,0.00,VWS V13.01,2013-07-07 15:17:00,
2013-07-07 08:22:00,67.6,43.1,30.53,WNW,292,2.7,2.7,41,0.00,,---,0.00,VWS V13.01,2013-07-07 15:22:00,
2013-07-07 08:27:00,67.6,43.1,30.53,West,270,2.7,3.6,41,0.00,,---,0.00,VWS V13.01,2013-07-07 15:27:00,
2013-07-07 08:32:00,68.2,42.3,30.53,North,0,3.6,3.6,39,0.00,,---,0.00,VWS V13.01,2013-07-07 15:32:00,
2013-07-07 08:37:00,68.7,42.8,30.53,West,270,3.1,3.1,39,0.00,,---,0.00,VWS V13.01,2013-07-07 15:37:00,
2013-07-07 08:42:00,69.3,42.6,30.53,North,0,2.7,2.7,38,0.00,,---,0.00,VWS V13.01,2013-07-07 15:42:00,
2013-07-07 08:47:00,69.8,42.4,30.53,NNW,338,0.0,0.0,37,0.00,,---,0.00,VWS V13.01,2013-07-07 15:47:00,
2013-07-07 08:52:00,70.5,41.6,30.53,NW,315,2.2,4.0,35,0.00,,---,0.00,VWS V13.01,2013-07-07 15:52:00,
2013-07-07 08:57:00,70.7,41.7,30.53,NW,315,2.2,2.2,35,0.00,,---,0.00,VWS V13.01,2013-07-07 15:57:00,
2013-07-07 09:02:00,71.4,42.4,30.53,NW,315,0.0,0.0,35,0.00,,---,0.00,VWS V13.01,2013-07-07 16:02:00,
2013-07-07 09:07:00,70.9,41.1,30.53,NE,45,2.7,2.7,34,0.00,,---,0.00,VWS V13.01,2013-07-07 16:07:00,
2013-07-07 09:12:00,71.4,41.6,30.53,NE,45,4.9,4.9,34,0.00,,---,0.00,VWS V13.01,2013-07-07 16:12:00,
2013-07-07 09:17:00,71.1,41.3,30.53,SW,225,2.2,5.8,34,0.00,,---,0.00,VWS V13.01,2013-07-07 16:17:00,
2013-07-07 09:22:00,72.5,41.8,30.53,WNW,292,2.7,2.7,33,0.00,,---,0.00,VWS V13.01,2013-07-07 16:22:00,
2013-07-07 09:27:00,72.7,42.0,30.50,NE,45,3.1,3.6,33,0.00,,---,0.00,VWS V13.01,2013-07-07 16:27:00,
2013-07-07 09:32:00,73.0,42.3,30.50,NE,45,2.7,2.7,33,0.00,,---,0.00,VWS V13.01,2013-07-07 16:32:00,
2013-07-07 09:37:00,73.2,42.4,30.50,ENE,68,4.9,4.9,33,0.00,,---,0.00,VWS V13.01,2013-07-07 16:37:00,
2013-07-07 09:42:00,73.4,41.8,30.53,NE,45,2.7,2.7,32,0.00,,---,0.00,VWS V13.01,2013-07-07 16:42:00,
2013-07-07 09:47:00,73.9,42.2,30.53,ENE,68,2.7,2.7,32,0.00,,---,0.00,VWS V13.01,2013-07-07 16:47:00,
2013-07-07 09:52:00,73.4,41.8,30.53,North,0,2.7,6.3,32,0.00,,---,0.00,VWS V13.01,2013-07-07 16:52:00,
2013-07-07 09:57:00,74.8,42.2,30.50,NNW,338,0.0,2.7,31,0.00,,---,0.00,VWS V13.01,2013-07-07 16:57:00,
2013-07-07 10:02:00,75.2,42.5,30.50,NE,45,4.0,4.0,31,0.00,,---,0.00,VWS V13.01,2013-07-07 17:02:00,
2013-07-07 10:07:00,74.5,41.9,30.50,NNE,22,4.0,4.0,31,0.00,,---,0.00,VWS V13.01,2013-07-07 17:07:00,
2013-07-07 10:12:00,74.3,41.7,30.50,North,0,4.5,7.2,31,0.00,,---,0.00,VWS V13.01,2013-07-07 17:12:00,
2013-07-07 10:17:00,74.7,42.0,30.50,NE,45,0.0,3.1,31,0.00,,---,0.00,VWS V13.01,2013-07-07 17:17:00,
2013-07-07 10:22:00,75.2,42.5,30.50,NE,45,6.3,7.6,31,0.00,,---,0.00,VWS V13.01,2013-07-07 17:22:00,
2013-07-07 10:27:00,75.4,42.7,30.50,NE,45,3.1,4.9,31,0.00,,---,0.00,VWS V13.01,2013-07-07 17:27:00,
2013-07-07 10:32:00,75.7,43.0,30.50,NE,45,3.1,4.9,31,0.00,,---,0.00,VWS V13.01,2013-07-07 17:32:00,
2013-07-07 10:37:00,75.4,42.7,30.50,NE,45,4.9,7.6,31,0.00,,---,0.00,VWS V13.01,2013-07-07 17:37:00,
2013-07-07 10:42:00,76.3,43.5,30.50,North,0,2.2,2.7,31,0.00,,---,0.00,VWS V13.01,2013-07-07 17:42:00,
2013-07-07 10:47:00,77.4,43.5,30.50,East,90,5.4,6.3,30,0.00,,---,0.00,VWS V13.01,2013-07-07 17:47:00,
2013-07-07 10:52:00,76.1,41.6,30.50,NE,45,4.0,5.8,29,0.00,,---,0.00,VWS V13.01,2013-07-07 17:52:00,
2013-07-07 10:57:00,77.4,41.7,30.50,NE,45,3.1,5.4,28,0.00,,---,0.00,VWS V13.01,2013-07-07 17:57:00,
2013-07-07 11:02:00,78.1,42.4,30.50,North,0,0.0,0.0,28,0.00,,---,0.00,VWS V13.01,2013-07-07 18:02:00,
2013-07-07 11:07:00,77.4,40.8,30.50,NE,45,4.9,8.7,27,0.00,,---,0.00,VWS V13.01,2013-07-07 18:07:00,
2013-07-07 11:12:00,76.6,42.0,30.50,West,270,4.9,5.8,29,0.00,,---,0.00,VWS V13.01,2013-07-07 18:12:00,
2013-07-07 11:17:00,77.2,39.7,30.50,NE,45,3.1,4.0,26,0.00,,---,0.00,VWS V13.01,2013-07-07 18:17:00,
2013-07-07 11:22:00,78.3,40.6,30.50,West,270,4.0,4.0,26,0.00,,---,0.00,VWS V13.01,2013-07-07 18:22:00,
2013-07-07 11:27:00,78.4,40.8,30.50,NE,45,8.1,11.0,26,0.00,,---,0.00,VWS V13.01,2013-07-07 18:27:00,
2013-07-07 11:32:00,78.1,40.4,30.50,NE,45,4.0,4.9,26,0.00,,---,0.00,VWS V13.01,2013-07-07 18:32:00,
2013-07-07 11:37:00,77.5,40.0,30.50,NE,45,5.8,5.8,26,0.00,,---,0.00,VWS V13.01,2013-07-07 18:37:00,
2013-07-07 11:42:00,78.8,41.0,30.50,NNE,22,2.7,3.1,26,0.00,,---,0.00,VWS V13.01,2013-07-07 18:42:00,
2013-07-07 11:47:00,80.2,42.3,30.50,SE,135,3.1,3.1,26,0.00,,---,0.00,VWS V13.01,2013-07-07 18:47:00,
2013-07-07 11:52:00,81.5,42.3,30.50,SE,135,2.7,2.7,25,0.00,,---,0.00,VWS V13.01,2013-07-07 18:52:00,
2013-07-07 11:57:00,80.1,40.1,30.50,NW,315,3.6,6.7,24,0.00,,---,0.00,VWS V13.01,2013-07-07 18:57:00,
2013-07-07 12:02:00,80.8,40.7,30.50,NE,45,2.7,3.1,24,0.00,,---,0.00,VWS V13.01,2013-07-07 19:02:00,
2013-07-07 12:07:00,81.1,39.9,30.50,SE,135,2.7,2.7,23,0.00,,---,0.00,VWS V13.01,2013-07-07 19:07:00,
2013-07-07 12:12:00,82.4,40.9,30.50,South,180,2.2,3.6,23,0.00,,---,0.00,VWS V13.01,2013-07-07 19:12:00,
2013-07-07 12:17:00,83.1,41.5,30.50,ENE,68,5.8,5.8,23,0.00,,---,0.00,VWS V13.01,2013-07-07 19:17:00,
2013-07-07 12:22:00,81.9,41.6,30.50,NE,45,6.7,8.3,24,0.00,,---,0.00,VWS V13.01,2013-07-07 19:22:00,
2013-07-07 12:27:00,81.0,39.7,30.47,NE,45,5.8,8.7,23,0.00,,---,0.00,VWS V13.01,2013-07-07 19:27:00,
2013-07-07 12:32:00,81.1,39.9,30.47,SE,135,2.7,2.7,23,0.00,,---,0.00,VWS V13.01,2013-07-07 19:32:00,
2013-07-07 12:37:00,82.0,39.5,30.47,NW,315,2.7,7.2,22,0.00,,---,0.00,VWS V13.01,2013-07-07 19:37:00,
2013-07-07 12:41:00,82.0,39.5,30.47,NE,45,7.2,7.2,22,0.00,,---,0.00,VWS V13.01,2013-07-07 19:41:00,
2013-07-07 12:46:00,82.4,39.8,30.47,North,0,5.4,5.8,22,0.00,,---,0.00,VWS V13.01,2013-07-07 19:46:00,
2013-07-07 12:51:00,82.6,39.9,30.47,NE,45,7.6,7.6,22,0.00,,---,0.00,VWS V13.01,2013-07-07 19:51:00,
2013-07-07 12:56:00,83.5,40.7,30.47,NW,315,3.1,3.6,22,0.00,,---,0.00,VWS V13.01,2013-07-07 19:56:00,
2013-07-07 13:01:00,84.2,40.1,30.47,NE,45,3.6,7.2,21,0.00,,---,0.00,VWS V13.01,2013-07-07 20:01:00,
2013-07-07 13:06:00,83.7,39.6,30.47,NNW,338,3.6,3.6,21,0.00,,---,0.00,VWS V13.01,2013-07-07 20:06:00,
2013-07-07 13:11:00,84.2,41.3,30.47,NW,315,5.4,5.4,22,0.00,,---,0.00,VWS V13.01,2013-07-07 20:11:00,
2013-07-07 13:16:00,84.7,40.5,30.47,North,0,7.6,7.6,21,0.00,,---,0.00,VWS V13.01,2013-07-07 20:16:00,
2013-07-07 13:21:00,82.9,39.0,30.47,North,0,5.4,6.7,21,0.00,,---,0.00,VWS V13.01,2013-07-07 20:21:00,
2013-07-07 13:26:00,83.7,39.6,30.47,NE,45,2.2,2.2,21,0.00,,---,0.00,VWS V13.01,2013-07-07 20:26:00,
2013-07-07 13:31:00,85.1,40.8,30.47,South,180,4.9,4.9,21,0.00,,---,0.00,VWS V13.01,2013-07-07 20:31:00,
2013-07-07 13:36:00,84.9,39.4,30.47,SW,225,5.4,5.4,20,0.00,,---,0.00,VWS V13.01,2013-07-07 20:36:00,
2013-07-07 13:41:00,86.0,41.6,30.44,South,180,2.2,4.9,21,0.00,,---,0.00,VWS V13.01,2013-07-07 20:41:00,
2013-07-07 13:46:00,86.5,42.0,30.44,NE,45,4.9,4.9,21,0.00,,---,0.00,VWS V13.01,2013-07-07 20:46:00,
2013-07-07 13:51:00,86.7,40.9,30.44,SW,225,3.6,6.3,20,0.00,,---,0.00,VWS V13.01,2013-07-07 20:51:00,
2013-07-07 13:56:00,86.7,42.2,30.44,NW,315,5.8,5.8,21,0.00,,---,0.00,VWS V13.01,2013-07-07 20:56:00,
2013-07-07 14:01:00,86.9,39.7,30.44,NE,45,4.0,8.1,19,0.00,,---,0.00,VWS V13.01,2013-07-07 21:01:00,
2013-07-07 14:06:00,85.3,39.7,30.44,North,0,4.9,4.9,20,0.00,,---,0.00,VWS V13.01,2013-07-07 21:06:00,
2013-07-07 14:11:00,85.3,39.7,30.47,North,0,5.4,8.1,20,0.00,,---,0.00,VWS V13.01,2013-07-07 21:11:00,
2013-07-07 14:16:00,85.8,40.2,30.47,North,0,3.1,4.0,20,0.00,,---,0.00,VWS V13.01,2013-07-07 21:16:00,
2013-07-07 14:21:00,85.8,40.2,30.47,North,0,8.7,8.7,20,0.00,,---,0.00,VWS V13.01,2013-07-07 21:21:00,
2013-07-07 14:26:00,84.9,39.4,30.47,NW,315,7.2,10.1,20,0.00,,---,0.00,VWS V13.01,2013-07-07 21:26:00,
2013-07-07 14:31:00,86.0,39.0,30.47,WNW,292,6.3,8.3,19,0.00,,---,0.00,VWS V13.01,2013-07-07 21:31:00,
2013-07-07 14:36:00,86.5,39.4,30.47,WNW,292,4.9,5.8,19,0.00,,---,0.00,VWS V13.01,2013-07-07 21:36:00,
2013-07-07 14:41:00,86.9,39.7,30.44,NNE,22,8.3,8.3,19,0.00,,---,0.00,VWS V13.01,2013-07-07 21:41:00,
2013-07-07 14:46:00,86.4,40.6,30.44,NE,45,0.0,0.0,20,0.00,,---,0.00,VWS V13.01,2013-07-07 21:46:00,
2013-07-07 14:51:00,85.3,39.7,30.44,North,0,6.7,10.5,20,0.00,,---,0.00,VWS V13.01,2013-07-07 21:51:00,
2013-07-07 14:56:00,85.3,39.7,30.44,NE,45,5.4,5.4,20,0.00,,---,0.00,VWS V13.01,2013-07-07 21:56:00,
2013-07-07 15:01:00,85.3,39.7,30.44,North,0,8.1,8.1,20,0.00,,---,0.00,VWS V13.01,2013-07-07 22:01:00,
2013-07-07 15:06:00,85.8,40.2,30.44,NE,45,8.1,8.1,20,0.00,,---,0.00,VWS V13.01,2013-07-07 22:06:00,
2013-07-07 15:11:00,85.5,39.9,30.44,NE,45,10.5,11.0,20,0.00,,---,0.00,VWS V13.01,2013-07-07 22:11:00,
2013-07-07 15:16:00,84.7,39.3,30.44,NE,45,4.9,10.1,20,0.00,,---,0.00,VWS V13.01,2013-07-07 22:16:00,
2013-07-07 15:21:00,85.3,41.0,30.44,North,0,5.4,6.7,21,0.00,,---,0.00,VWS V13.01,2013-07-07 22:21:00,
2013-07-07 15:26:00,85.6,40.0,30.44,North,0,5.4,7.6,20,0.00,,---,0.00,VWS V13.01,2013-07-07 22:26:00,
2013-07-07 15:31:00,85.3,39.7,30.44,NW,315,3.6,4.9,20,0.00,,---,0.00,VWS V13.01,2013-07-07 22:31:00,
2013-07-07 15:36:00,86.2,40.5,30.44,NW,315,3.1,8.1,20,0.00,,---,0.00,VWS V13.01,2013-07-07 22:36:00,
2013-07-07 15:41:00,86.5,39.4,30.44,NE,45,6.7,6.7,19,0.00,,---,0.00,VWS V13.01,2013-07-07 22:41:00,
2013-07-07 15:46:00,87.1,39.9,30.44,West,270,6.3,6.3,19,0.00,,---,0.00,VWS V13.01,2013-07-07 22:46:00,
2013-07-07 15:51:00,87.1,39.9,30.44,NE,45,9.6,9.6,19,0.00,,---,0.00,VWS V13.01,2013-07-07 22:51:00,
2013-07-07 15:56:00,86.9,41.0,30.41,North,0,4.9,6.7,20,0.00,,---,0.00,VWS V13.01,2013-07-07 22:56:00,
2013-07-07 16:01:00,87.3,41.3,30.41,NE,45,7.6,8.1,20,0.00,,---,0.00,VWS V13.01,2013-07-07 23:01:00,
2013-07-07 16:06:00,85.8,40.2,30.41,NE,45,6.7,10.5,20,0.00,,---,0.00,VWS V13.01,2013-07-07 23:06:00,
2013-07-07 16:11:00,86.0,40.3,30.41,NNW,338,5.8,8.1,20,0.00,,---,0.00,VWS V13.01,2013-07-07 23:11:00,
2013-07-07 16:16:00,87.1,41.2,30.41,East,90,5.4,6.3,20,0.00,,---,0.00,VWS V13.01,2013-07-07 23:16:00,
2013-07-07 16:21:00,86.7,40.9,30.41,North,0,8.1,15.4,20,0.00,,---,0.00,VWS V13.01,2013-07-07 23:21:00,
2013-07-07 16:26:00,86.5,40.8,30.41,North,0,11.9,11.9,20,0.00,,---,0.00,VWS V13.01,2013-07-07 23:26:00,
2013-07-07 16:31:00,86.5,40.8,30.41,NNW,338,6.3,8.7,20,0.00,,---,0.00,VWS V13.01,2013-07-07 23:31:00,
2013-07-07 16:36:00,86.7,40.9,30.41,North,0,10.1,10.1,20,0.00,,---,0.00,VWS V13.01,2013-07-07 23:36:00,
2013-07-07 16:41:00,85.5,39.9,30.41,North,0,8.3,12.8,20,0.00,,---,0.00,VWS V13.01,2013-07-07 23:41:00,
2013-07-07 16:46:00,85.6,40.0,30.41,NE,45,7.6,10.1,20,0.00,,---,0.00,VWS V13.01,2013-07-07 23:46:00,
2013-07-07 16:51:00,85.6,40.0,30.41,NE,45,5.8,5.8,20,0.00,,---,0.00,VWS V13.01,2013-07-07 23:51:00,
2013-07-07 16:56:00,85.6,40.0,30.41,North,0,8.3,15.0,20,0.00,,---,0.00,VWS V13.01,2013-07-07 23:56:00,
2013-07-07 17:01:00,85.5,41.1,30.41,NE,45,5.4,10.1,21,0.00,,---,0.00,VWS V13.01,2013-07-08 00:01:00,
2013-07-07 17:06:00,85.1,39.6,30.41,NW,315,4.9,4.9,20,0.00,,---,0.00,VWS V13.01,2013-07-08 00:06:00,
2013-07-07 17:11:00,85.3,41.0,30.41,NE,45,11.0,11.0,21,0.00,,---,0.00,VWS V13.01,2013-07-08 00:11:00,
2013-07-07 17:16:00,84.6,40.4,30.41,NE,45,9.6,13.2,21,0.00,,---,0.00,VWS V13.01,2013-07-08 00:16:00,
2013-07-07 17:21:00,84.7,40.5,30.41,NE,45,10.1,12.8,21,0.00,,---,0.00,VWS V13.01,2013-07-08 00:21:00,
2013-07-07 17:26:00,84.9,40.7,30.41,NE,45,11.0,11.0,21,0.00,,---,0.00,VWS V13.01,2013-07-08 00:26:00,
2013-07-07 17:31:00,83.7,39.6,30.41,North,0,12.3,12.3,21,0.00,,---,0.00,VWS V13.01,2013-07-08 00:31:00,
2013-07-07 17:36:00,84.2,38.8,30.41,NE,45,5.8,5.8,20,0.00,,---,0.00,VWS V13.01,2013-07-08 00:36:00,
2013-07-07 17:41:00,84.4,40.2,30.41,NE,45,8.1,8.1,21,0.00,,---,0.00,VWS V13.01,2013-07-08 00:41:00,
2013-07-07 17:46:00,84.0,39.9,30.41,NE,45,10.1,13.2,21,0.00,,---,0.00,VWS V13.01,2013-07-08 00:46:00,
2013-07-07 17:51:00,84.9,39.4,30.41,North,0,13.2,13.2,20,0.00,,---,0.00,VWS V13.01,2013-07-08 00:51:00,
2013-07-07 17:56:00,84.0,39.9,30.41,NE,45,8.7,8.7,21,0.00,,---,0.00,VWS V13.01,2013-07-08 00:56:00,
2013-07-07 18:01:00,84.2,38.8,30.41,NE,45,8.7,8.7,20,0.00,,---,0.00,VWS V13.01,2013-07-08 01:01:00,
2013-07-07 18:06:00,83.5,39.5,30.41,NE,45,8.7,8.7,21,0.00,,---,0.00,VWS V13.01,2013-07-08 01:06:00,
2013-07-07 18:11:00,84.0,39.9,30.41,NE,45,8.7,8.7,21,0.00,,---,0.00,VWS V13.01,2013-07-08 01:11:00,
2013-07-07 18:16:00,84.0,39.9,30.41,NE,45,8.7,8.7,21,0.00,,---,0.00,VWS V13.01,2013-07-08 01:16:00,
2013-07-07 18:21:00,84.0,39.9,30.41,North,0,5.8,5.8,21,0.00,,---,0.00,VWS V13.01,2013-07-08 01:21:00,
2013-07-07 18:26:00,83.7,39.6,30.44,North,0,5.8,5.8,21,0.00,,---,0.00,VWS V13.01,2013-07-08 01:26:00,
2013-07-07 18:31:00,84.2,40.1,30.44,North,0,5.8,5.8,21,0.00,,---,0.00,VWS V13.01,2013-07-08 01:31:00,
2013-07-07 18:36:00,84.0,39.9,30.44,North,0,5.8,5.8,21,0.00,,---,0.00,VWS V13.01,2013-07-08 01:36:00,
2013-07-07 18:41:00,83.5,39.5,30.44,WNW,292,3.1,3.1,21,0.00,,---,0.00,VWS V13.01,2013-07-08 01:41:00,
2013-07-07 18:46:00,82.6,38.7,30.44,North,0,13.2,13.2,21,0.00,,---,0.00,VWS V13.01,2013-07-08 01:46:00,
2013-07-07 18:51:00,82.8,38.9,30.44,North,0,13.2,13.2,21,0.00,,---,0.00,VWS V13.01,2013-07-08 01:51:00,
2013-07-07 18:56:00,82.4,38.6,30.44,North,0,5.4,5.4,21,0.00,,---,0.00,VWS V13.01,2013-07-08 01:56:00,
2013-07-07 19:01:00,81.5,39.0,30.44,North,0,5.4,5.4,22,0.00,,---,0.00,VWS V13.01,2013-07-08 02:01:00,
2013-07-07 19:06:00,81.3,38.9,30.44,North,0,10.1,10.1,22,0.00,,---,0.00,VWS V13.01,2013-07-08 02:06:00,
2013-07-07 19:11:00,80.8,38.4,30.44,North,0,11.4,11.4,22,0.00,,---,0.00,VWS V13.01,2013-07-08 02:11:00,
2013-07-07 19:16:00,80.6,38.3,30.44,NE,45,4.9,8.3,22,0.00,,---,0.00,VWS V13.01,2013-07-08 02:16:00,
2013-07-07 19:21:00,80.2,39.1,30.44,North,0,6.3,7.6,23,0.00,,---,0.00,VWS V13.01,2013-07-08 02:21:00,
2013-07-07 19:26:00,79.2,38.2,30.44,NE,45,13.2,13.2,23,0.00,,---,0.00,VWS V13.01,2013-07-08 02:26:00,
2013-07-07 19:31:00,79.0,38.1,30.44,North,0,5.4,5.4,23,0.00,,---,0.00,VWS V13.01,2013-07-08 02:31:00,
2013-07-07 19:36:00,78.1,38.4,30.44,NE,45,7.6,11.0,24,0.00,,---,0.00,VWS V13.01,2013-07-08 02:36:00,
2013-07-07 19:41:00,77.7,39.1,30.44,North,0,6.3,8.3,25,0.00,,---,0.00,VWS V13.01,2013-07-08 02:41:00,
2013-07-07 19:46:00,77.5,39.0,30.44,NNE,22,8.3,8.3,25,0.00,,---,0.00,VWS V13.01,2013-07-08 02:46:00,
2013-07-07 19:51:00,77.2,39.7,30.44,North,0,4.0,5.8,26,0.00,,---,0.00,VWS V13.01,2013-07-08 02:51:00,
2013-07-07 19:56:00,76.8,40.3,30.44,North,0,7.6,10.1,27,0.00,,---,0.00,VWS V13.01,2013-07-08 02:56:00,
2013-07-07 20:01:00,76.5,40.0,30.44,NE,45,5.4,8.3,27,0.00,,---,0.00,VWS V13.01,2013-07-08 03:01:00,
2013-07-07 20:06:00,76.3,40.8,30.44,NE,45,5.8,5.8,28,0.00,,---,0.00,VWS V13.01,2013-07-08 03:06:00,
2013-07-07 20:11:00,76.1,40.7,30.47,NE,45,6.3,7.6,28,0.00,,---,0.00,VWS V13.01,2013-07-08 03:11:00,
2013-07-07 20:16:00,75.9,41.4,30.47,North,0,10.5,11.0,29,0.00,,---,0.00,VWS V13.01,2013-07-08 03:16:00,
2013-07-07 20:21:00,75.7,41.3,30.47,North,0,3.1,5.4,29,0.00,,---,0.00,VWS V13.01,2013-07-08 03:21:00,
2013-07-07 20:26:00,75.6,42.0,30.47,North,0,4.9,5.8,30,0.00,,---,0.00,VWS V13.01,2013-07-08 03:26:00,
2013-07-07 20:31:00,75.2,41.7,30.47,North,0,5.4,5.8,30,0.00,,---,0.00,VWS V13.01,2013-07-08 03:31:00,
2013-07-07 20:36:00,75.0,42.4,30.47,North,0,3.6,5.8,31,0.00,,---,0.00,VWS V13.01,2013-07-08 03:36:00,
2013-07-07 20:41:00,74.5,41.9,30.47,North,0,9.6,9.6,31,0.00,,---,0.00,VWS V13.01,2013-07-08 03:41:00,
2013-07-07 20:46:00,73.9,41.4,30.47,North,0,5.8,5.8,31,0.00,,---,0.00,VWS V13.01,2013-07-08 03:46:00,
2013-07-07 20:51:00,73.4,41.0,30.47,North,0,6.7,6.7,31,0.00,,---,0.00,VWS V13.01,2013-07-08 03:51:00,
2013-07-07 20:56:00,73.0,41.5,30.47,North,0,5.8,5.8,32,0.00,,---,0.00,VWS V13.01,2013-07-08 03:56:00,
2013-07-07 21:01:00,72.5,41.0,30.47,NNE,22,4.9,5.4,32,0.00,,---,0.00,VWS V13.01,2013-07-08 04:01:00,
2013-07-07 21:06:00,72.1,41.5,30.47,NW,315,3.1,5.4,33,0.00,,---,0.00,VWS V13.01,2013-07-08 04:06:00,
2013-07-07 21:11:00,71.8,41.2,30.47,NNE,22,5.4,5.4,33,0.00,,---,0.00,VWS V13.01,2013-07-08 04:11:00,
2013-07-07 21:16:00,71.4,42.4,30.47,NE,45,6.3,6.3,35,0.00,,---,0.00,VWS V13.01,2013-07-08 04:16:00,
2013-07-07 21:21:00,70.9,42.6,30.47,NE,45,3.6,6.3,36,0.00,,---,0.00,VWS V13.01,2013-07-08 04:21:00,
2013-07-07 21:26:00,70.5,43.0,30.50,North,0,3.1,3.1,37,0.00,,---,0.00,VWS V13.01,2013-07-08 04:26:00,
2013-07-07 21:31:00,70.2,43.4,30.50,North,0,4.0,6.3,38,0.00,,---,0.00,VWS V13.01,2013-07-08 04:31:00,
2013-07-07 21:36:00,70.0,43.9,30.50,North,0,5.4,8.7,39,0.00,,---,0.00,VWS V13.01,2013-07-08 04:36:00,
2013-07-07 21:41:00,69.4,45.4,30.50,North,0,3.6,6.3,42,0.00,,---,0.00,VWS V13.01,2013-07-08 04:41:00,
2013-07-07 21:46:00,69.1,45.7,30.50,North,0,5.8,7.6,43,0.00,,---,0.00,VWS V13.01,2013-07-08 04:46:00,
2013-07-07 21:51:00,68.7,45.3,30.50,NNE,22,3.6,4.9,43,0.00,,---,0.00,VWS V13.01,2013-07-08 04:51:00,
2013-07-07 21:56:00,68.4,45.6,30.50,NE,45,3.6,4.0,44,0.00,,---,0.00,VWS V13.01,2013-07-08 04:56:00,
2013-07-07 22:01:00,67.8,45.7,30.50,North,0,4.9,6.3,45,0.00,,---,0.00,VWS V13.01,2013-07-08 05:01:00,
2013-07-07 22:06:00,67.6,45.6,30.50,North,0,7.2,7.2,45,0.00,,---,0.00,VWS V13.01,2013-07-08 05:06:00,
2013-07-07 22:11:00,67.3,45.8,30.50,North,0,3.6,4.5,46,0.00,,---,0.00,VWS V13.01,2013-07-08 05:11:00,
2013-07-07 22:16:00,66.9,45.5,30.53,North,0,2.2,3.1,46,0.00,,---,0.00,VWS V13.01,2013-07-08 05:16:00,
2013-07-07 22:21:00,66.6,45.2,30.53,North,0,5.4,5.4,46,0.00,,---,0.00,VWS V13.01,2013-07-08 05:21:00,
2013-07-07 22:26:00,66.2,45.4,30.50,North,0,2.7,4.0,47,0.00,,---,0.00,VWS V13.01,2013-07-08 05:26:00,
2013-07-07 22:31:00,65.8,45.6,30.50,North,0,2.7,3.1,48,0.00,,---,0.00,VWS V13.01,2013-07-08 05:31:00,
2013-07-07 22:36:00,65.7,46.0,30.50,NE,45,4.0,5.8,49,0.00,,---,0.00,VWS V13.01,2013-07-08 05:36:00,
2013-07-07 22:41:00,65.3,45.7,30.53,North,0,2.7,3.1,49,0.00,,---,0.00,VWS V13.01,2013-07-08 05:41:00,
2013-07-07 22:46:00,64.8,45.7,30.53,North,0,2.2,3.1,50,0.00,,---,0.00,VWS V13.01,2013-07-08 05:46:00,
2013-07-07 22:51:00,64.6,46.1,30.53,NNE,22,0.0,4.0,51,0.00,,---,0.00,VWS V13.01,2013-07-08 05:51:00,
2013-07-07 22:56:00,64.4,45.9,30.53,North,0,4.5,4.5,51,0.00,,---,0.00,VWS V13.01,2013-07-08 05:56:00,
2013-07-07 23:01:00,64.2,46.2,30.53,North,0,0.0,2.7,52,0.00,,---,0.00,VWS V13.01,2013-07-08 06:01:00,
2013-07-07 23:06:00,64.2,47.2,30.53,NE,45,4.9,4.9,54,0.00,,---,0.00,VWS V13.01,2013-07-08 06:06:00,
2013-07-07 23:11:00,64.0,47.6,30.53,North,0,4.0,4.9,55,0.00,,---,0.00,VWS V13.01,2013-07-08 06:11:00,
2013-07-07 23:16:00,64.0,48.5,30.53,NE,45,7.6,9.6,57,0.00,,---,0.00,VWS V13.01,2013-07-08 06:16:00,
2013-07-07 23:21:00,64.0,48.5,30.53,NNE,22,7.6,7.6,57,0.00,,---,0.00,VWS V13.01,2013-07-08 06:21:00,
2013-07-07 23:26:00,63.9,48.3,30.53,NW,315,3.6,5.8,57,0.00,,---,0.00,VWS V13.01,2013-07-08 06:26:00,
2013-07-07 23:31:00,63.5,48.0,30.53,North,0,3.1,3.6,57,0.00,,---,0.00,VWS V13.01,2013-07-08 06:31:00,
2013-07-07 23:36:00,63.1,48.1,30.53,NE,45,2.7,3.1,58,0.00,,---,0.00,VWS V13.01,2013-07-08 06:36:00,
2013-07-07 23:41:00,62.6,47.6,30.53,NE,45,0.0,0.0,58,0.00,,---,0.00,VWS V13.01,2013-07-08 06:41:00,
2013-07-07 23:46:00,62.2,47.8,30.53,NE,45,0.0,0.0,59,0.00,,---,0.00,VWS V13.01,2013-07-08 06:46:00,
2013-07-07 23:51:00,61.7,47.7,30.53,NE,45,0.0,0.0,60,0.00,,---,0.00,VWS V13.01,2013-07-08 06:51:00,
2013-07-07 23:56:00,61.2,48.0,30.53,NE,45,0.0,0.0,62,0.00,,---,0.00,VWS V13.01,2013-07-08 06:56:00,